NOAA 16 DEB, 42428

Orbit data source: Space-Track

NOAA 16 DEB, 42428 is space debris in SSO originally from a launch on Thu, 21 Sep 2000 UTC launched from the Air Force Western Test Range (AFWTR). Debris objects in space refer to the collection of defunct objects orbiting the Earth. Examples of debris include non-operational satellites, rocket bodies, and fragments generated from explosions, collisions, or faulty payload assembly.

Loading next visibility...
Identifier
42428, 2000-055TY
Orbit
SSO
Country
Flag of USUS
Related business
Manufacturer
Unknown
Mission
Spacecraft
Bus & Motor
Unknown
Mass
Unknown
Launch date (UTC)
2000-09-21 (26 years ago)
Launch vehicle
Unknown
Launch site
Air Force Western Test Range (AFWTR)
Object type
Payload
Rocket body
Debris
Shape & HBR
Unknown shape, 0.1 m
Radar Cross Section
Small (<0.1 m²)

Expand to show TLE details & history
Last TLE update: 1 week ago

TLE from 1 week ago
0 NOAA 16 DEB
1 42428U 00055TY  26247.23527067  .00000840  00000-0  35178-3 0  9992
2 42428  98.9786  33.0480 0023611   4.1353 356.0018 14.28698727502077
Epoch: 2026-09-04T05:38Z
TLE epoch observation values (Epoch: 2026-09-04T05:38:47.385Z)
Latitude
-0.00007°
Longitude
-35.01143°
Altitude
782.1 km
Speed
7.472 km/s
True Right ascension
02h 12m 11s
True Declination
0° 00' 00"
Sunlit
Object was in full shadow at epoch
Visualization orbit readout
Latitude
Unknown
Longitude
Unknown
Altitude
Unknown
Speed
Unknown
Apparent Right ascension
Unknown
Apparent Declination
Unknown
Sunlit
N/A
Visualization observer readout
Local Sidereal Time
16:31:54
Azimuth
Unknown
Elevation
Unknown
Doppler factor
Unknown
Orbital elements
Apogee altitude
810.176 km
Perigee altitude
776.311 km
Semi-major axis
7,171.381 km
Eccentricity
0.00236
Inclination
98.9786°
RAAN
33.048°
Arg. of periapsis
4.1353°
True anomaly
355.98288°
Mean anomaly
356.0018°
Eccentric anomaly
355.99235°
Mean motion
3.57387 °/min
Orbital period
100.73 mins
BSTAR
0.00035178
Loading maneuver chart data...
Computing Atmospheric mass density...
Loading historical data...
Loading historical data...
Loading historical data...
Loading historical data...
Loading historical data...
Loading historical data...
Loading historical data...

Documentation

Showing up to 5 results
|